#timestamp,LO_Frequency,Hit,StdDev 
1672988415.3,286046980.5,N
1672988435.1,286046977.5,N
1672988455.9,286046978.3,N
1672988475.7,286046977.8,Y
1672988495.5,286046986.0,P
1672988515.4,286046988.3,P
1672988535.2,286046985.4,P
1672988555.1,286046989.4,Y
1672988556.0,286046989.4,P
1672988575.8,286047001.2,N
1672988595.6,286046992.2,N
1672988615.5,286047002.4,N
1672988635.3,286046996.9,N
1672988655.1,286046994.6,N
1672988675.9,286046992.9,N
1672988695.7,286046986.3,N
1672988715.6,286046982.6,Y
1672988735.4,286046990.9,P
1672988755.2,286046991.6,P
1672988775.1,286046986.4,P
1672988776.0,286046986.4,Y
1672988795.8,286046991.7,P
1672988815.6,286046994.2,P
1672988835.5,286047001.4,N
1672988855.3,286047002.1,N
1672988875.1,286046995.2,N
1672988895.9,286046993.5,N
1672988915.7,286046997.0,N
1672988935.6,286046996.5,N
1672988955.4,286046995.1,N
1672988975.2,286046997.2,N
1672988995.1,286046993.3,N
1672988996.0,286046993.3,N
1672989015.8,286046991.7,N
1672989035.7,286046995.1,N
1672989055.5,286047005.5,N
1672989075.3,286046997.4,N
1672989095.2,286046997.8,N
1672989115.9,286046999.6,N
1672989135.7,286046992.0,N
1672989155.6,286046989.6,N
1672989175.4,286046980.5,Y
1672989195.3,286046987.3,P
1672989215.1,286046991.3,N
1672989216.0,286046991.3,N
1672989235.8,286046990.4,Y
1672989255.7,286047001.1,P
1672989275.5,286046998.0,N
1672989295.4,286046995.7,N
1672989315.2,286047002.7,N
1672989335.0,286047001.4,N
1672989335.9,286047001.4,N
1672989355.8,286047002.9,N
1672989375.6,286047000.6,N
1672989395.4,286047000.2,N
1672989415.3,286047004.1,N
1672989435.1,286046996.5,N
1672989455.9,286046994.8,N
1672989475.7,286046993.9,N
1672989495.5,286047003.6,N
1672989515.4,286047005.6,N
1672989535.2,286046995.6,N
1672989555.0,286046996.2,N
1672989555.9,286046996.2,N
1672989575.8,286046992.4,N
1672989595.6,286047000.7,N
1672989615.4,286047004.7,N
1672989635.3,286047001.0,N
1672989655.1,286046994.3,N
1672989675.9,286046985.5,Y
1672989695.7,286046988.8,P
1672989715.5,286046990.8,N
1672989735.4,286046990.7,N
1672989755.2,286046987.4,Y
1672989775.0,286046993.0,P
1672989776.0,286046993.0,P
1672989795.8,286046992.2,P
1672989815.6,286046998.9,Y
1672989835.5,286047000.7,P
1672989855.3,286046999.3,N
1672989875.1,286047004.2,N
1672989895.9,286047002.8,N
1672989915.7,286047016.7,Y
1672989935.6,286046991.9,P
1672989955.4,286046998.6,N
1672989975.2,286046998.5,N
1672989995.1,286046997.3,N
1672989996.0,286046997.3,N
1672990015.8,286047007.4,N
1672990035.6,286046996.8,N
1672990055.5,286046997.9,N
1672990075.3,286046993.8,N
1672990095.2,286047000.7,N
1672990115.9,286046994.0,N
1672990135.7,286046994.5,N
1672990155.6,286046990.1,N
1672990175.4,286046990.1,N
1672990195.2,286046990.9,N
1672990215.1,286046991.2,N
1672990216.0,286046991.2,N
1672990235.8,286046990.6,N
1672990255.7,286046988.9,N
1672990275.5,286046988.0,N
1672990295.3,286046992.2,N
1672990315.2,286046996.0,N
1672990335.9,286046991.8,N
1672990355.7,286046993.5,N
1672990375.6,286046990.3,N
1672990395.4,286046994.8,N
1672990415.2,286046989.8,N
1672990435.1,286046988.8,N
1672990436.0,286046988.8,N
1672990455.8,286046986.1,Y
1672990475.7,286046992.4,P
1672990495.5,286046992.9,P
1672990515.3,286046992.8,P
1672990535.2,286046992.9,Y
1672990555.0,286047002.5,P
1672990555.9,286047002.5,N
1672990575.8,286047004.5,N
1672990595.6,286047002.0,N
1672990615.4,286047002.2,N
1672990635.3,286046999.3,N
1672990655.1,286046995.4,N
1672990675.8,286046996.6,N
1672990695.7,286046997.7,N
1672990715.5,286046994.9,N
1672990735.3,286046995.9,N
1672990755.2,286047002.2,N
1672990775.0,286046999.9,N
1672990775.9,286046999.9,N
1672990795.8,286047001.2,N
1672990815.6,286046998.9,N
1672990835.4,286046998.5,N
1672990855.3,286046995.0,N
1672990875.1,286046998.5,N
1672990895.9,286047002.3,N
1672990915.7,286047010.5,Y
1672990935.5,286047012.4,P
1672990955.4,286047013.9,N
1672990975.2,286047008.6,N
1672990995.0,286047012.0,N
1672990995.9,286047012.0,N
1672991015.8,286047015.2,Y
1672991035.6,286047004.4,P
1672991055.5,286047003.4,N
1672991075.3,286047000.1,N
1672991095.1,286046999.7,N
1672991115.9,286046993.7,N
1672991135.7,286046991.0,N
1672991155.5,286046993.4,N
1672991175.4,286046991.8,N
1672991195.2,286046989.6,N
1672991215.1,286046987.1,N
1672991216.0,286046987.1,N
1672991235.8,286046988.2,N
1672991255.6,286046985.7,N
1672991275.5,286046984.5,N
1672991295.3,286046986.0,N
1672991315.1,286046984.2,N
1672991335.9,286046985.2,N
1672991355.7,286046978.0,N
1672991375.5,286046983.0,N
1672991395.4,286046989.8,N
1672991415.2,286046990.6,N
1672991435.1,286046997.6,N
1672991436.0,286046997.6,N
1672991455.8,286046999.6,N
1672991475.6,286046997.9,N
1672991495.5,286046990.7,N
1672991515.3,286046987.1,N
1672991535.1,286046987.2,N
1672991555.9,286046987.6,N
1672991575.7,286046988.3,N
1672991595.6,286046988.0,N
1672991615.4,286046991.8,N
1672991635.2,286046991.2,N
1672991655.1,286046988.6,N
1672991656.0,286046988.6,N
1672991675.8,286046989.6,N
1672991695.6,286046987.3,N
1672991715.5,286046984.2,Y
1672991735.3,286047002.2,P
1672991755.1,286047001.5,N
1672991775.9,286047000.3,N
1672991795.7,286047000.1,N
1672991815.6,286047001.2,N
1672991835.4,286046998.3,N
1672991855.2,286046999.2,N
1672991875.1,286046996.9,N
1672991876.0,286046996.9,N
1672991895.8,286046999.1,N
1672991915.6,286046996.6,N
1672991935.5,286046997.6,N
1672991955.3,286046993.3,N
1672991975.2,286046997.6,N
1672991995.9,286047001.2,N
